Location: Brno
(49.2000°N, 16.6330°E)
Time: 04:31:06
(UTC+01:00)

Meteor 1-4 Rocket - Visible Passes

Search period start: 02 March 2015 00:00
Search period end: 12 March 2015 00:00
Orbit: 464 x 527 km, 81.2° (Epoch: 01 March)

Date Brightness Start Highest point End Pass type
(mag) Time Alt. Az. Time Alt. Az. Time Alt. Az.
02 Mar 3.4 18:08:18 10° N 18:11:26 29° ENE 18:14:37 10° SE visible
02 Mar 5.1 19:43:59 10° NW 19:46:46 21° W 19:49:30 10° SW visible
03 Mar 4.6 19:22:18 10° NNW 19:25:26 29° W 19:28:35 10° SSW visible
04 Mar 3.9 19:00:42 10° NNW 19:04:05 41° W 19:07:29 10° SSW visible
05 Mar 3.2 18:39:10 10° NNW 18:42:43 59° W 18:46:16 10° S visible
06 Mar 2.6 18:17:42 10° NNW 18:21:17 86° W 18:24:55 10° S visible
07 Mar 6.4 19:34:30 10° W 19:34:49 10° W 19:34:56 10° W visible
08 Mar 6.0 19:11:28 10° NW 19:13:28 14° W 19:15:21 10° WSW visible
09 Mar 5.7 18:49:26 10° NW 18:52:06 19° W 18:54:42 10° SW visible
10 Mar 5.2 18:27:37 10° NW 18:30:42 26° W 18:33:46 10° SSW visible
